Location: Newark
(46.5669°N, 0.8644°E)
Time: 10:53:59
(UTC+00:00)

X-37B - Visible Passes

Search period start: 27 February 2021 00:00
Search period end: 09 March 2021 00:00
Orbit: 383 x 391 km, 45.0° (Epoch: 10 February)

Date Brightness Start Highest point End Pass type
(mag) Time Alt. Az. Time Alt. Az. Time Alt. Az.
27 Feb 1.3 04:44:21 47° SE 04:44:21 47° SE 04:46:53 10° ESE visible
28 Feb 1.6 05:20:56 26° SW 05:21:51 31° SSW 05:24:42 10° SE visible
01 Mar 2.7 04:25:17 22° SE 04:25:17 22° SE 04:26:38 10° ESE visible
01 Mar 2.8 05:58:05 10° WSW 05:59:43 13° SSW 06:01:20 10° S visible
02 Mar 2.3 05:02:03 20° SSW 05:02:03 20° SSW 05:04:02 10° SSE visible
